User: anonymous   Login
Location: Ciula Mare
(45.6000°N, 22.8167°E)
Time: 00:10:00
(UTC+00:00)
Language:

Cosmos 1763 Rocket - Orbit

View from above orbital plane
View from above orbital plane
View from above satellite
View from above satellite

Ground track
Ground track

The orbit data is extracted from the following two-line orbital elements,

1 16864U 86052B   23150.13027828  .00000211  00000-0  73404-4 0  9994
2 16864  74.0309  33.0401 0033362 316.0836  43.7668 14.40990677935575
Epoch (UTC): 30 May 2023 03:07:36
Eccentricity: 0.0033362
inclination: 74.0309°
perigee height: 731 km
apogee height: 779 km
right ascension of ascending node: 33.0401°
argument of perigee: 316.0836°
revolutions per day: 14.40990677
mean anomaly at epoch: 43.7668°
orbit number at epoch: 93557

The dashed part of the orbit path shows where the satellite is in the earth's shadow,  

DLR